Theta_e
331 333 334 337 339 342 344 346 346 348 349 350 349 349 350 349 349 348 349 350 350 349 348 346 344 344 345 346 344 346 347 348 352 351 353 356 357 358 358 358 358 359 359 355 350 354 351 350 352 352 353 353 350 349 349 349 349 351 356 358 355 344 344 350 349 347 337 337 338 339 339 343 353 354 349 347 346 346 347 349 350 351 350 350 351
330 330 333 336 338 341 344 344 346 344 346 348 345 347 348 348 348 348 349 350 350 350 349 347 345 345 345 346 345 347 349 350 350 350 353 357 357 357 358 358 358 359 361 357 354 351 350 351 352 352 353 353 353 354 350 358 358 355 353 347 349 346 343 351 352 343 336 332 334 332 336 337 344 351 348 347 347 346 346 346 348 349 349 349 350
327 329 333 336 338 341 342 342 343 344 345 345 344 345 346 347 347 348 349 350 350 351 350 347 347 349 348 347 348 349 353 354 351 353 356 356 357 358 359 358 358 358 360 360 354 353 352 352 353 352 352 357 353 352 353 351 352 353 350 347 345 346 351 353 350 343 338 339 338 334 326 328 335 333 338 345 347 347 346 345 347 347 348 348 348
325 328 332 335 338 339 340 340 340 342 343 342 342 344 346 347 346 348 349 350 350 352 353 349 349 350 350 350 352 353 351 356 353 354 355 355 355 358 358 358 358 358 359 360 356 353 353 353 353 352 352 357 351 350 349 349 350 351 351 355 347 342 343 344 355 346 341 337 330 330 329 327 323 326 328 334 340 345 346 346 346 345 346 345 347
325 329 332 335 336 337 338 339 339 340 340 341 342 344 346 346 347 348 350 350 351 354 352 350 353 350 351 353 355 354 353 350 350 350 353 355 356 356 357 358 358 358 358 359 359 354 353 353 353 352 352 353 354 350 349 351 349 351 351 351 347 344 340 341 344 350 344 342 340 333 326 325 324 327 333 332 338 338 340 344 347 347 344 343 345
326 329 332 334 335 336 336 337 338 339 339 341 343 346 346 346 348 349 350 350 351 352 351 351 352 348 348 348 347 346 344 345 346 348 350 353 354 357 357 359 358 357 357 357 360 357 354 354 353 353 351 352 356 351 350 350 350 350 351 350 350 347 345 343 337 345 351 353 344 340 336 331 331 332 327 323 329 343 339 335 338 342 343 343 341
327 330 333 334 334 334 335 336 337 338 339 342 344 345 346 347 348 349 349 350 352 352 352 353 349 349 349 348 348 346 345 345 346 351 353 354 356 356 356 358 357 358 357 356 358 358 354 354 353 353 353 352 358 351 350 350 351 352 354 351 349 355 346 339 340 341 338 342 351 349 349 347 339 335 329 328 323 327 332 334 332 335 338 338 339
326 329 332 333 333 334 334 336 337 338 340 342 343 345 346 347 348 348 349 351 351 352 351 352 349 349 348 348 349 346 346 346 347 350 353 356 354 356 356 356 357 356 356 354 356 358 355 353 352 352 352 353 357 355 352 351 353 354 356 353 355 354 342 341 340 342 336 336 351 347 350 348 344 341 336 334 329 325 330 335 336 335 334 335 338
326 329 331 332 332 334 336 336 337 339 340 341 343 345 347 348 348 348 348 350 349 352 351 351 351 350 349 348 348 349 348 349 350 354 352 356 352 353 355 355 355 355 355 355 355 356 359 356 353 352 352 352 359 358 355 355 353 351 351 350 349 349 349 347 342 342 338 338 338 340 339 342 339 341 342 339 332 325 327 329 331 333 332 332 334
325 329 331 332 333 335 337 338 337 338 341 343 343 346 347 347 348 347 347 348 348 350 351 350 351 352 348 347 347 347 350 349 348 348 349 352 351 352 353 352 353 353 353 353 354 355 357 358 356 354 353 353 358 356 355 354 353 352 352 351 348 346 349 345 348 347 343 343 341 340 337 337 336 336 336 337 336 332 331 332 333 331 326 328 334
326 327 330 331 334 336 337 337 337 338 340 341 343 345 347 347 347 346 346 347 348 350 349 349 349 350 349 348 347 347 348 349 346 346 346 348 349 350 351 351 352 353 352 354 354 356 355 358 357 356 356 359 358 355 353 354 354 353 352 351 350 347 346 349 349 349 346 344 343 341 339 340 338 336 335 336 334 331 329 329 331 336 327 329 332
331 325 328 329 332 335 337 336 336 337 340 340 342 345 346 346 347 345 345 346 346 349 349 349 349 349 349 349 348 348 350 349 346 345 347 347 348 349 350 349 350 352 351 352 354 355 356 356 358 356 357 355 355 354 353 354 355 354 352 350 348 348 348 351 346 343 345 343 342 342 342 342 340 339 341 339 336 333 332 330 330 334 335 333 335
334 324 327 328 331 334 335 335 336 336 338 340 341 344 346 346 346 345 344 345 345 349 348 348 348 348 349 349 349 350 351 350 348 346 347 347 348 348 349 348 348 351 350 352 353 354 356 355 354 354 353 355 356 355 354 355 354 354 351 351 348 347 346 347 345 344 346 344 344 346 344 343 342 341 342 341 339 336 334 332 331 337 333 334 336
338 326 326 327 330 334 335 336 336 337 338 340 341 343 345 346 345 345 345 345 344 348 348 348 348 348 349 349 349 352 351 350 349 347 348 348 349 349 350 350 350 352 352 353 354 355 357 357 357 355 354 354 356 354 354 355 354 352 351 351 350 348 347 348 346 347 346 346 346 344 343 344 342 343 343 341 340 336 334 334 334 331 336 337 336
338 332 325 327 329 332 334 336 337 337 338 340 342 342 343 345 345 345 344 345 344 347 347 348 349 349 349 350 349 352 352 351 350 350 348 348 351 350 351 351 351 353 353 355 357 355 356 356 357 356 356 355 356 355 358 356 356 354 354 351 351 349 347 348 347 347 349 347 346 345 348 346 344 343 345 346 338 337 338 338 333 332 329 329 335
338 338 330 326 327 330 333 335 337 337 338 340 342 342 342 344 345 345 345 345 344 348 347 348 348 350 349 349 350 352 355 353 353 354 350 350 352 352 351 351 352 353 354 356 356 357 355 356 357 357 357 357 357 357 356 356 355 354 352 351 350 356 350 347 346 346 348 347 347 345 344 345 346 345 346 348 345 343 347 341 336 331 329 329 330
336 338 338 335 336 333 330 333 336 338 338 340 342 343 343 343 345 344 345 346 344 348 347 348 347 348 349 349 350 352 353 352 352 353 351 351 354 354 352 352 353 354 355 357 356 356 356 356 356 357 358 357 357 358 358 357 356 356 355 351 351 351 351 349 347 346 347 348 346 347 346 346 345 346 349 349 349 349 348 343 341 338 332 331 330
338 339 340 341 340 341 340 333 334 336 338 340 342 343 344 344 345 344 346 346 345 347 348 348 347 347 348 348 348 352 353 353 353 353 353 351 353 355 354 353 354 355 356 357 356 356 355 362 356 357 358 359 358 359 359 359 358 356 355 353 353 351 350 350 351 348 348 346 349 349 347 346 346 346 345 344 348 346 346 347 345 343 339 336 332
335 336 339 340 339 340 340 343 338 335 339 340 343 344 344 344 346 346 346 348 346 347 349 350 349 349 349 349 348 350 353 353 353 354 354 353 353 354 354 354 355 356 357 355 355 355 355 356 357 356 357 359 359 359 359 358 358 356 355 354 353 352 350 349 350 349 351 348 346 346 346 346 346 345 344 346 346 350 346 346 347 345 342 339 337
333 335 336 339 342 344 342 344 342 342 341 341 344 345 344 344 346 346 346 349 348 347 349 349 350 350 350 349 349 349 352 352 353 353 353 354 353 354 355 354 354 356 356 356 355 355 355 355 357 357 357 357 359 360 359 358 358 357 357 356 354 353 351 350 350 350 352 350 347 346 347 347 347 345 345 346 346 347 348 345 345 345 343 342 343
334 334 334 336 337 342 346 342 343 346 349 344 344 345 345 345 346 348 345 347 349 348 348 349 350 351 351 349 349 349 350 352 352 353 353 353 354 355 355 356 355 355 356 355 355 355 355 355 356 357 357 357 357 359 359 358 357 357 356 355 354 353 353 353 353 352 352 350 349 347 347 347 346 346 347 347 347 348 348 347 345 344 344 344 340
334 335 334 335 336 338 342 343 343 345 345 344 345 346 346 347 349 350 349 349 350 351 350 350 350 351 350 351 350 350 350 351 351 351 352 352 353 353 354 354 354 354 355 355 355 355 355 355 355 355 356 357 357 357 359 358 357 356 356 358 356 354 353 353 351 352 353 352 350 347 347 348 347 347 346 346 346 346 344 345 345 347 343 344 344
332 333 334 335 336 337 339 340 342 344 345 345 345 346 346 347 348 348 348 349 351 349 350 352 352 351 350 351 351 351 351 351 350 350 350 351 352 352 353 352 352 353 353 354 354 355 355 355 354 355 355 356 357 357 358 358 357 357 356 357 358 356 354 353 352 353 353 352 350 350 350 351 352 347 347 346 345 344 345 344 344 344 343 344 344
331 333 333 333 334 335 336 337 340 343 343 343 343 344 346 347 348 347 347 348 348 347 348 348 348 349 349 350 350 351 351 351 350 350 349 350 350 350 352 351 351 351 350 352 353 354 354 354 354 354 354 354 356 357 357 358 358 357 357 356 357 357 357 355 354 354 354 353 352 350 352 352 351 349 348 346 345 344 343 343 343 342 343 344 344
330 331 332 333 333 333 334 337 339 341 343 342 342 343 344 345 346 347 346 348 348 347 347 348 348 347 347 347 348 349 350 351 351 351 350 350 350 350 349 350 350 349 349 349 351 352 352 353 354 354 353 353 354 356 356 357 358 358 357 357 357 357 357 356 356 355 359 354 353 352 352 351 350 350 350 347 346 344 345 343 342 343 343 345 346
328 330 331 331 331 333 334 335 337 340 341 342 342 344 344 344 344 346 347 346 347 348 346 346 349 347 346 346 346 347 349 350 350 351 351 351 350 349 349 349 349 348 348 348 348 350 352 351 353 354 353 353 353 354 355 356 357 357 357 358 358 357 357 356 356 355 355 355 355 354 354 353 351 350 350 349 346 346 346 345 344 343 343 342 343
326 328 330 331 331 332 334 336 337 339 339 340 341 342 343 342 344 346 347 347 347 347 345 344 349 347 346 346 345 346 347 349 350 350 351 350 349 348 347 347 349 349 348 347 347 348 351 351 352 353 353 353 352 353 353 354 355 355 356 356 357 356 356 355 355 355 355 355 355 355 354 354 352 352 351 350 348 347 348 347 348 346 345 342 342
326 328 329 329 331 332 333 334 336 338 340 341 342 343 344 344 344 345 347 347 347 347 346 346 347 346 345 346 346 346 347 347 348 349 349 349 348 346 345 344 346 346 347 346 346 346 348 351 352 352 352 353 352 351 351 352 353 353 354 354 355 355 355 355 355 355 355 355 355 355 356 355 354 354 353 352 351 350 349 348 349 348 346 344 343
324 325 327 328 329 330 332 334 335 337 338 339 340 341 343 344 347 348 348 348 350 350 349 348 347 346 345 345 346 346 347 348 351 349 348 347 347 346 345 344 343 344 346 346 345 345 346 347 349 351 351 352 352 352 352 352 351 351 352 352 353 354 354 353 353 353 354 355 355 356 356 356 358 363 362 360 358 357 352 349 349 348 347 345 344
321 323 324 326 327 328 330 333 335 336 336 337 337 340 342 343 345 347 347 349 350 349 349 349 349 349 349 349 348 349 347 348 348 346 344 345 346 346 345 344 344 345 345 344 343 343 343 345 346 348 349 351 351 352 355 348 350 353 351 352 352 352 353 353 352 352 352 353 354 355 357 364 363 363 361 356 348 353 359 356 352 349 348 347 346
319 319 320 321 322 324 326 329 333 335 336 336 336 338 339 340 341 343 345 347 347 345 345 346 346 347 348 348 348 347 346 345 345 344 343 344 345 346 345 343 343 344 345 347 347 342 341 342 345 346 347 349 350 352 347 337 337 341 353 351 350 350 351 352 352 351 350 351 352 353 354 359 364 363 358 351 346 343 343 345 347 358 360 351 347
318 319 320 321 322 324 326 329 330 332 333 333 332 333 335 335 338 339 342 344 343 343 343 343 344 345 346 347 347 347 346 347 347 345 344 344 345 344 343 343 344 344 346 349 347 344 342 343 344 343 345 348 349 349 337 334 334 334 342 353 351 350 350 350 351 350 351 351 351 351 352 353 353 354 354 354 353 348 341 340 340 343 343 348 353
318 319 319 320 322 324 325 326 327 328 329 330 331 331 331 332 333 336 338 339 341 340 339 339 341 343 344 344 344 344 344 345 346 348 346 346 345 345 345 346 347 348 349 346 346 347 346 343 344 344 343 344 346 343 334 331 331 330 331 341 351 350 349 350 350 350 349 349 349 349 349 350 352 361 361 355 351 351 347 342 339 340 341 342 337
316 316 316 319 321 323 325 325 325 327 328 328 329 328 330 332 331 332 333 334 334 335 338 340 341 341 342 343 343 344 344 344 345 346 347 346 345 346 348 350 351 350 349 349 349 348 348 345 344 344 345 347 346 345 333 328 326 326 327 332 344 347 348 348 348 349 349 349 348 348 347 348 348 349 349 348 348 347 347 346 345 345 345 349 346
315 317 319 320 321 322 323 324 325 327 326 325 325 327 327 327 327 327 328 329 330 330 330 331 333 338 342 342 342 343 343 344 345 345 345 345 345 345 343 345 345 344 346 347 348 345 345 350 350 349 347 349 351 337 330 329 325 321 323 328 339 344 347 348 349 349 348 348 348 348 347 347 347 346 347 349 345 344 343 343 343 343 344 344 344
316 317 317 318 319 319 320 321 325 324 324 325 324 325 326 325 327 326 327 327 328 328 329 330 329 330 332 338 342 341 342 342 341 341 340 340 341 341 340 342 340 340 341 344 346 348 347 345 346 350 348 347 351 337 334 331 325 322 322 332 336 339 342 345 347 349 350 350 349 349 348 347 346 346 349 342 350 348 343 341 341 341 342 343 344
316 317 317 318 319 319 321 322 322 322 323 323 324 325 325 325 325 325 325 325 325 326 327 329 331 330 331 330 331 337 342 342 341 339 339 340 340 339 340 342 338 337 340 341 342 345 345 345 345 346 347 346 349 343 332 327 325 323 326 333 334 337 339 341 343 346 348 349 350 350 348 348 347 346 344 332 331 343 343 343 342 342 342 342 343
316 317 317 317 317 318 320 320 320 321 322 324 325 324 324 324 325 325 325 325 325 324 325 326 326 328 329 328 330 330 333 342 341 338 338 339 341 341 339 341 337 337 338 339 343 343 344 344 345 344 349 348 348 344 324 321 318 319 328 334 335 334 334 336 338 340 342 344 347 356 359 349 347 347 337 330 329 337 339 340 340 340 340 340 342
315 315 315 316 317 317 318 317 317 318 320 321 322 322 321 319 321 321 321 322 323 325 325 324 325 327 327 327 328 329 329 331 338 340 342 340 339 340 341 340 339 337 338 339 345 343 344 344 344 345 347 347 347 342 326 319 319 316 327 337 338 337 336 336 337 338 339 341 342 349 353 354 352 347 332 328 326 334 339 340 340 339 339 339 341
314 314 315 316 317 316 314 314 314 315 318 320 320 321 323 319 318 319 319 320 320 321 323 323 323 324 325 327 327 329 329 329 332 335 336 337 339 340 341 340 339 337 339 341 343 343 340 339 340 340 340 340 340 340 339 320 316 318 317 334 339 339 339 339 339 341 342 342 343 343 346 335 327 324 322 320 320 321 336 339 339 338 338 338 341
314 315 319 313 314 314 313 314 314 315 316 318 319 318 317 319 318 316 318 319 320 321 322 323 322 322 322 323 325 326 327 329 332 331 333 334 334 336 338 338 339 339 338 339 341 340 339 337 337 339 338 337 340 339 338 322 315 317 318 327 338 340 340 340 341 342 342 342 343 344 345 338 316 312 311 310 310 312 318 332 337 339 340 341 340
318 318 316 312 312 312 312 313 313 314 316 316 318 318 317 315 314 314 316 318 321 321 322 323 324 323 323 322 324 327 329 329 330 330 329 329 331 331 332 332 332 331 331 331 333 335 333 333 332 334 335 334 338 342 338 328 314 313 314 318 332 333 331 336 338 340 342 343 345 346 347 329 314 312 310 308 308 311 313 327 332 322 321 322 332
311 312 315 313 311 311 311 312 313 314 314 314 316 317 316 315 313 314 316 318 321 320 321 322 324 324 325 323 324 325 326 328 328 328 327 327 328 328 327 328 327 327 326 326 328 329 328 328 329 329 330 331 333 337 334 336 317 311 310 313 314 322 320 335 334 335 336 338 341 342 345 339 318 311 309 308 309 310 318 328 318 315 316 318 328
311 312 312 314 311 311 311 312 313 314 313 314 315 317 318 317 314 316 317 318 318 319 321 322 323 321 322 323 323 326 324 324 326 325 326 325 325 326 326 326 324 325 324 323 324 326 325 325 325 326 328 329 331 333 336 333 329 313 311 309 311 311 315 326 331 332 333 335 337 338 336 318 309 305 307 309 310 313 321 312 310 313 315 320 329
310 311 314 312 311 310 311 311 312 313 313 313 314 316 317 315 315 319 318 316 317 320 322 321 319 318 320 319 318 321 322 321 321 322 323 324 323 324 323 323 324 323 323 321 322 323 321 322 322 323 324 326 328 329 330 333 332 326 316 312 313 314 315 315 328 332 334 334 326 316 311 310 310 309 309 311 316 322 317 314 312 313 320 330 332
310 310 312 311 311 310 310 310 310 312 313 315 314 314 314 314 317 318 318 316 317 320 323 321 319 320 319 318 316 319 319 319 320 321 324 321 321 323 323 322 322 322 322 321 320 320 320 319 319 319 320 323 325 327 327 331 334 330 326 318 316 316 322 320 325 328 324 319 316 315 315 315 316 318 328 335 338 338 327 323 321 324 330 332 335
308 310 312 310 310 309 310 310 310 310 312 314 313 314 315 315 316 316 318 318 320 322 322 319 317 319 319 318 319 319 317 318 317 317 319 322 321 319 320 323 321 318 318 319 317 320 318 318 317 317 318 320 321 323 325 326 325 324 323 323 322 323 322 321 323 323 322 321 322 325 326 321 320 321 324 327 329 332 333 335 336 336 336 336 337
309 310 310 309 308 308 309 309 309 309 311 313 313 312 313 313 313 314 316 319 322 322 318 317 318 319 322 321 321 328 322 316 317 318 317 318 319 319 318 318 318 316 314 315 316 318 318 316 315 315 316 317 319 320 321 316 319 319 318 318 319 321 317 316 318 316 315 318 322 325 326 335 338 339 338 338 338 338 339 338 338 338 338 339 341
308 309 311 308 309 309 309 310 309 309 311 311 311 311 311 311 311 312 314 317 319 320 319 317 318 319 320 323 320 319 319 318 316 318 317 318 316 317 316 315 317 317 316 314 314 314 317 314 314 314 315 316 318 319 320 309 311 303 306 310 314 314 311 312 315 307 312 319 323 329 332 333 334 334 335 336 337 338 338 339 340 341 341 341 340
308 310 309 310 311 309 309 309 307 308 311 310 310 310 310 310 310 311 311 313 316 317 314 315 318 319 321 321 319 317 317 318 317 316 316 317 321 313 313 314 314 319 313 307 309 313 313 313 312 316 317 316 316 319 305 298 296 296 296 297 298 297 297 303 305 303 312 316 326 328 330 331 332 333 334 335 336 337 338 339 340 336 340 342 342
308 307 307 308 309 311 310 309 307 310 310 310 310 309 309 309 309 309 310 310 310 313 313 313 317 317 320 319 318 316 315 314 314 314 316 316 314 314 305 305 309 313 307 302 301 301 302 306 314 313 316 313 310 303 297 295 296 296 296 296 296 296 297 297 299 311 324 325 326 326 327 328 329 330 330 330 330 332 334 336 337 339 342 342 340
Wind_Speed
10 13 13 13 13 12 11 10 9 9 10 10 10 9 8 8 9 9 8 7 7 6 5 6 5 5 3 5 5 5 5 4 3 2 3 4 3 3 3 2 2 3 3 4 4 3 3 2 2 2 2 2 2 3 3 2 2 1 1 1 1 2 1 1 1 1 3 2 2 2 4 2 2 2 4 4 5 6 5 5 5 4 5 5 5
10 10 12 12 11 12 10 9 9 10 8 10 10 9 8 7 9 9 8 8 8 8 6 5 4 5 5 5 3 5 5 5 4 4 5 4 3 3 3 3 3 3 3 4 4 5 3 3 3 3 3 3 3 3 2 1 0 0 1 1 0 0 1 1 1 0 3 1 1 3 4 5 2 1 2 3 4 4 5 5 4 5 6 5 4
11 12 12 12 13 13 10 10 10 13 13 12 10 9 8 8 7 7 8 8 8 8 7 6 4 4 4 4 5 4 2 4 4 4 5 5 5 4 3 3 4 3 3 3 5 4 5 4 5 4 4 3 2 1 2 1 0 1 0 0 3 1 2 2 0 1 1 1 1 1 2 4 4 3 2 3 4 5 4 5 5 5 7 5 4
13 13 14 12 12 12 11 11 10 9 9 9 9 10 8 7 7 7 8 8 8 8 7 6 6 5 3 4 4 4 4 3 3 3 4 4 5 4 3 3 3 3 3 3 4 5 5 5 4 4 4 3 3 2 2 2 1 0 0 0 1 2 3 2 1 0 2 1 2 0 1 1 4 2 3 6 3 5 5 6 4 5 5 4 3
13 13 13 12 12 12 13 11 10 10 10 10 10 10 8 9 8 8 8 8 7 8 8 6 6 4 3 3 3 3 4 4 4 4 4 5 4 3 5 3 3 3 3 3 4 5 4 4 4 4 3 3 3 3 3 4 3 1 1 1 0 0 2 2 2 1 1 2 3 1 2 2 1 4 3 5 3 2 3 4 4 5 5 4 4
15 15 15 14 14 11 10 10 11 11 11 10 11 11 10 9 8 8 7 7 7 8 7 7 7 7 6 6 6 4 5 6 6 7 6 6 6 4 3 3 3 3 3 3 3 4 4 4 4 3 3 2 3 3 2 1 2 2 2 2 1 1 1 0 2 2 1 0 2 1 3 1 2 2 1 2 5 1 4 3 4 5 4 4 4
12 14 14 14 13 13 11 11 12 12 11 10 10 10 11 10 9 9 8 7 7 7 8 7 7 6 8 8 7 7 7 4 3 5 7 6 5 5 5 4 3 4 3 3 3 3 4 4 3 3 3 3 2 2 2 3 2 1 1 1 2 1 2 1 1 2 3 1 1 1 1 1 2 1 2 0 3 3 1 2 3 3 4 4 5
12 14 14 15 15 15 14 13 11 13 11 10 10 10 12 11 10 9 7 7 7 7 7 7 8 7 7 6 6 6 7 6 5 5 4 5 5 5 5 5 4 4 3 3 3 3 3 3 3 3 3 3 2 2 3 2 1 1 1 2 1 1 2 1 1 1 1 1 2 3 2 0 1 0 1 0 1 1 5 4 2 3 3 4 5
12 13 15 15 15 14 14 13 11 11 11 12 11 11 10 10 11 9 8 7 6 7 7 6 7 7 7 6 6 5 5 5 4 4 5 5 5 4 5 5 4 4 3 3 3 3 3 3 3 3 3 3 2 3 2 2 3 3 1 2 3 2 1 1 1 1 1 1 3 1 1 0 1 2 1 1 1 1 2 2 4 4 1 4 4
9 13 15 15 15 15 15 14 11 12 12 11 10 10 10 9 9 10 9 7 7 6 6 6 6 6 6 6 6 5 4 3 4 5 5 5 6 5 4 5 5 4 3 3 3 3 4 3 4 4 4 4 3 3 3 2 2 3 3 3 3 3 1 2 0 0 1 1 0 1 2 3 4 2 3 4 1 1 1 2 3 3 3 5 3
8 11 12 14 15 15 13 14 13 10 9 10 10 10 10 10 10 10 9 7 7 7 6 6 5 5 6 7 7 6 5 5 5 4 4 4 5 5 5 5 4 5 4 3 3 3 4 3 4 4 4 3 3 3 3 3 3 3 2 2 3 2 1 1 2 2 1 1 1 1 1 1 0 0 3 1 0 1 3 3 3 2 3 5 4
7 11 11 11 11 11 12 12 12 12 10 10 9 10 10 10 10 10 7 7 7 7 6 7 6 6 5 7 7 6 6 5 6 6 6 6 5 6 5 4 4 4 3 3 4 3 4 3 3 3 3 3 3 3 3 3 2 1 1 2 2 2 2 1 1 1 1 1 1 1 0 1 1 2 3 2 2 1 1 3 3 3 2 4 5
7 10 11 10 12 12 12 12 11 11 12 12 12 11 10 10 10 11 9 7 8 7 7 7 6 7 6 6 6 5 6 6 6 6 5 6 5 5 4 5 4 4 4 4 4 4 4 3 3 3 3 3 2 2 3 2 2 1 1 2 1 2 1 1 1 1 0 1 3 1 1 0 3 3 2 2 1 1 2 1 1 0 0 3 2
6 9 12 11 12 12 14 13 13 12 12 13 11 11 10 9 10 11 10 8 6 7 7 7 7 6 6 6 6 5 6 6 6 6 6 5 6 6 6 6 6 6 5 5 5 5 4 4 3 3 3 3 3 3 3 2 1 2 2 3 3 2 1 2 1 1 0 1 1 2 3 2 4 2 1 2 2 2 0 0 1 1 0 2 3
3 6 10 12 12 13 13 13 13 13 13 12 11 10 10 10 10 11 9 8 8 8 7 8 7 6 6 6 6 5 6 5 5 5 6 6 5 5 5 5 6 6 6 5 4 4 5 4 3 4 3 3 3 3 3 3 2 2 3 3 2 1 2 1 2 1 3 3 2 1 2 3 4 5 1 0 3 3 1 2 1 3 4 3 4
2 3 6 10 11 10 10 12 12 12 13 12 12 10 10 11 12 12 12 11 10 9 8 8 8 7 6 6 6 5 5 5 5 4 5 6 6 6 6 6 6 5 4 4 5 5 5 5 4 4 4 4 3 4 3 3 3 3 3 2 3 1 2 2 3 2 3 3 3 1 2 3 3 4 3 1 1 1 3 4 4 3 2 4 4
1 3 3 6 5 6 8 10 10 11 12 12 12 12 13 12 12 11 11 10 10 10 10 8 8 7 7 7 6 5 6 6 6 6 6 5 5 6 6 7 5 4 5 4 5 5 5 5 5 5 4 4 4 4 4 3 3 3 3 3 4 3 3 3 3 3 3 3 3 3 2 3 4 3 3 3 1 0 1 2 2 1 3 2 2
3 2 4 2 5 6 6 8 8 10 12 12 13 12 12 12 13 13 11 11 10 10 10 9 9 8 7 7 6 7 6 6 6 6 6 5 5 5 4 5 6 6 5 4 5 5 5 5 5 5 5 4 5 4 4 4 3 4 4 4 4 3 3 3 3 3 3 3 3 4 3 3 3 3 4 3 2 2 2 2 1 2 3 1 2
8 9 3 0 1 3 4 4 5 4 7 9 10 11 9 9 11 13 13 13 13 10 9 8 8 7 7 7 7 6 5 5 5 5 5 6 6 6 5 6 5 5 5 4 5 5 5 5 5 5 5 5 5 5 4 4 4 4 3 4 3 3 3 4 4 3 4 3 3 4 3 4 3 3 3 3 2 1 3 1 0 2 1 2 3
8 2 6 4 3 1 3 5 7 8 8 7 8 7 9 9 10 10 10 8 8 9 9 9 9 8 7 5 5 5 5 5 5 5 6 6 6 6 5 5 6 5 5 5 5 5 5 6 5 6 6 5 5 5 5 4 4 4 4 4 3 3 3 4 4 3 3 3 4 4 4 4 4 3 3 3 3 1 1 2 1 1 0 2 4
7 7 4 5 4 3 4 4 4 4 3 6 9 10 9 7 6 6 8 7 7 7 8 8 7 7 7 8 7 6 6 5 5 5 6 6 5 5 6 6 4 5 5 5 6 6 6 6 6 6 6 6 6 6 5 5 5 5 5 4 3 3 4 4 3 4 3 3 4 4 5 4 3 3 4 4 3 2 1 2 2 2 1 0 1
7 6 7 4 4 5 3 2 3 4 5 6 5 6 7 6 6 7 7 8 8 7 5 4 4 4 5 6 6 5 5 5 5 5 6 6 6 6 5 4 5 5 5 6 6 6 5 6 6 6 6 6 6 6 6 5 6 6 5 4 5 4 4 4 3 4 5 4 4 4 5 5 3 3 3 3 3 3 2 1 0 1 2 2 3
8 8 6 5 6 6 7 6 4 5 4 6 6 5 5 6 7 6 7 5 6 5 4 5 5 4 4 4 4 5 5 6 6 5 6 6 6 6 5 5 6 5 4 5 6 6 6 6 6 6 6 6 6 6 5 5 6 7 7 6 6 5 6 6 5 6 6 4 4 4 6 4 3 3 3 4 3 4 3 2 3 1 2 3 3
10 9 8 8 9 8 9 9 9 6 5 6 6 6 5 5 5 6 6 5 5 4 5 7 7 6 5 5 5 5 6 6 7 6 7 6 6 5 5 6 6 5 6 5 5 6 6 7 7 7 7 6 6 6 5 6 7 7 7 7 6 6 6 6 6 6 6 5 5 5 5 4 3 4 4 4 4 3 3 3 3 3 3 4 3
8 8 6 6 9 10 7 9 7 4 4 5 6 6 8 8 7 5 5 4 5 3 3 2 5 7 6 6 6 5 6 7 8 7 7 6 6 5 4 6 5 6 5 5 5 5 5 6 7 8 7 7 7 7 7 7 6 6 7 7 6 6 6 7 7 6 6 5 6 6 6 4 4 4 5 4 4 4 4 3 3 4 3 4 3
7 7 7 7 7 7 7 6 5 4 6 5 6 6 5 8 10 9 7 3 2 1 5 6 5 7 7 7 6 5 7 8 8 8 8 8 6 6 5 5 6 6 6 6 6 6 6 7 7 7 7 8 8 7 8 8 8 7 6 6 6 6 6 6 6 6 6 5 6 6 6 5 4 5 6 5 4 5 4 4 4 4 4 3 4
8 7 6 6 8 10 8 7 6 7 8 10 10 7 5 5 4 6 9 9 5 4 4 5 6 6 6 6 6 6 6 7 7 7 5 5 5 5 5 6 5 6 6 7 6 6 6 7 8 7 8 8 8 7 7 7 7 6 7 6 6 6 5 5 5 6 6 6 6 6 6 5 6 6 6 6 5 4 4 5 5 5 4 4 5
7 8 7 7 6 7 7 6 5 6 7 6 5 6 7 9 10 7 6 6 8 9 8 7 6 6 6 6 6 6 4 2 2 3 4 4 4 4 5 5 4 5 6 7 7 7 7 7 8 8 8 8 7 7 7 7 6 7 6 6 7 6 6 6 5 6 6 6 6 6 6 6 6 6 6 6 5 6 5 5 6 4 4 4 5
8 8 7 6 6 5 6 5 4 5 7 7 6 6 5 5 5 6 7 6 5 5 6 5 3 2 1 1 2 1 1 1 2 3 2 1 2 4 5 5 3 4 6 7 6 6 6 6 6 7 7 7 7 7 7 7 7 7 7 7 8 8 8 7 7 6 6 7 6 6 6 7 7 9 10 9 8 7 5 6 6 4 5 5 5
9 9 8 6 6 6 5 6 5 5 5 6 4 3 5 5 5 5 4 4 4 3 3 3 3 3 4 4 3 3 3 3 5 7 7 6 4 2 3 2 2 5 7 6 5 6 6 7 7 7 6 6 7 6 9 14 12 8 8 8 7 7 8 7 7 7 7 7 7 7 7 11 12 12 12 12 12 12 11 8 7 5 6 5 5
8 9 8 7 8 8 7 6 7 6 5 4 3 5 6 7 7 6 6 4 5 5 5 5 6 6 5 5 5 5 4 4 4 5 5 4 3 1 1 1 2 2 2 4 5 4 5 5 7 8 8 7 7 8 13 14 14 15 10 7 8 8 7 7 7 7 8 8 6 6 6 8 9 10 10 13 13 13 13 14 14 13 9 6 6
9 9 8 9 9 9 8 8 7 6 6 5 6 8 7 7 6 7 7 7 7 6 6 6 5 5 5 6 6 6 6 4 3 3 1 1 3 3 3 5 5 4 2 1 4 4 3 2 2 3 5 7 8 11 14 13 14 14 13 9 7 7 7 7 7 8 8 7 7 6 6 5 6 7 7 7 9 12 14 14 14 14 14 12 10
9 8 8 9 10 9 9 9 8 7 6 6 6 7 8 7 6 6 7 8 8 6 7 6 6 6 6 6 6 6 6 5 4 3 4 5 5 4 2 4 6 6 6 4 2 3 4 3 2 2 2 3 3 6 9 12 13 14 14 12 7 6 7 7 8 8 8 8 7 6 7 6 6 10 9 7 6 7 10 13 13 13 12 13 15
8 8 8 9 9 8 8 8 7 7 7 6 6 8 7 6 5 6 9 9 8 6 5 6 6 6 5 4 5 5 5 5 5 5 5 5 5 4 3 2 3 4 4 6 6 5 5 5 2 2 2 1 2 2 1 6 10 12 12 10 8 8 7 7 7 8 7 8 8 7 7 8 7 6 6 7 6 6 7 6 6 6 6 9 12
8 10 11 10 9 9 8 8 7 7 5 6 6 6 6 7 5 7 7 8 7 6 7 8 6 5 4 4 4 4 4 4 4 5 5 6 6 5 5 4 4 4 5 6 6 7 8 8 7 3 2 2 1 1 2 2 5 8 10 8 7 7 8 8 8 7 8 8 8 8 8 9 8 7 7 8 8 8 7 7 6 7 7 8 6
9 11 10 9 9 8 8 7 6 7 6 6 5 5 7 6 5 6 6 6 6 7 8 8 9 8 7 5 3 3 4 4 4 3 5 5 5 4 3 2 3 3 3 4 4 4 4 5 8 6 2 3 3 6 6 4 3 4 3 3 4 6 7 8 8 7 7 7 7 7 7 8 8 7 10 13 11 8 6 7 8 8 9 8 8
11 12 10 9 7 7 6 7 8 7 6 6 4 5 6 6 7 7 7 7 8 8 8 8 8 8 7 6 6 4 3 4 3 4 5 4 5 3 1 1 1 1 2 3 2 3 1 2 4 5 4 3 4 6 9 8 6 5 2 0 1 2 4 6 7 6 5 5 4 5 6 7 7 8 11 12 13 9 6 7 8 9 9 8 9
12 11 11 10 8 8 8 8 9 10 8 6 6 6 7 7 7 7 8 7 8 8 7 7 6 5 4 5 5 6 5 4 3 4 3 1 1 3 4 2 1 1 2 2 2 4 4 3 5 5 4 4 5 10 14 13 11 7 3 2 1 0 2 3 4 4 5 5 7 10 9 7 8 9 12 12 12 7 6 8 8 9 10 10 10
10 11 11 10 9 9 8 9 10 10 7 7 7 8 8 8 7 7 7 8 7 6 6 6 5 4 4 5 6 7 7 6 4 2 1 0 1 1 1 0 1 2 2 1 2 3 5 4 4 5 10 8 6 8 12 13 12 9 3 0 0 1 2 3 4 5 4 4 6 7 11 11 9 9 11 11 12 7 7 7 8 7 9 10 10
9 9 9 8 8 11 11 10 9 6 5 6 6 8 8 7 7 7 8 7 6 5 3 2 3 3 4 6 5 6 5 6 6 6 5 4 3 4 3 2 2 3 4 4 4 5 7 7 7 7 6 7 7 7 10 13 11 11 8 4 2 3 3 3 3 4 6 5 4 4 5 7 11 13 14 14 12 8 7 7 5 7 8 12 7
10 9 9 9 9 10 9 8 6 6 6 6 6 8 8 6 6 8 8 6 5 5 5 3 3 4 5 5 5 5 6 6 5 5 6 6 7 7 7 7 6 5 6 6 6 5 6 4 4 5 6 7 8 8 9 13 13 12 12 9 5 6 5 5 5 6 5 6 7 7 6 7 12 11 10 9 8 7 6 7 6 7 8 8 6
9 10 10 10 9 9 9 9 7 8 7 6 7 8 6 6 8 8 7 6 5 5 5 5 4 4 4 5 6 5 6 6 6 6 8 8 6 7 7 6 6 7 7 7 6 6 4 4 3 4 5 6 8 11 7 11 13 13 12 10 6 5 4 3 3 3 4 4 5 5 5 6 9 10 10 9 9 6 5 3 7 10 13 14 10
10 9 9 11 10 9 8 6 6 7 7 6 7 7 5 5 7 6 6 5 4 4 4 5 5 5 4 4 5 6 6 5 6 6 7 7 6 7 7 7 7 7 7 6 6 6 5 5 5 5 5 6 7 7 9 7 10 12 11 10 8 6 6 4 3 3 3 4 5 5 6 10 13 13 12 11 9 10 7 6 10 10 10 11 8
8 10 10 11 10 8 8 6 6 6 6 6 7 6 5 6 6 5 4 4 4 5 4 4 4 4 4 4 3 5 5 5 5 6 7 7 6 5 6 6 6 6 6 7 6 6 6 7 7 6 6 6 6 6 6 8 6 10 10 10 9 8 7 4 3 3 4 4 4 5 6 11 13 12 11 10 10 8 7 11 11 11 10 7 4
10 9 9 9 11 9 8 7 6 6 6 6 6 7 6 7 6 5 5 4 4 4 4 4 5 4 4 3 3 4 4 4 4 5 6 6 5 5 7 6 6 6 6 6 6 6 6 6 6 7 7 7 7 6 5 6 7 9 8 9 8 8 8 7 5 4 4 5 8 12 12 12 12 12 12 9 7 8 11 10 10 10 8 4 5
9 9 10 9 9 9 9 8 6 6 6 6 6 7 8 5 5 5 5 4 4 4 5 5 5 4 4 3 3 3 4 4 4 5 5 4 4 5 6 5 5 5 5 5 6 6 6 7 6 6 6 7 7 5 5 5 7 8 6 7 8 7 8 7 4 4 7 11 12 13 13 12 11 10 7 4 4 6 8 10 11 8 4 5 5
10 9 10 9 8 8 8 8 7 4 6 6 6 6 5 5 6 6 6 5 4 5 4 5 5 5 4 3 4 4 5 4 4 4 5 5 5 6 6 6 5 5 5 5 5 5 6 6 7 7 7 6 6 6 6 6 7 7 6 6 6 5 7 6 5 5 7 7 9 9 8 11 10 12 12 10 8 7 7 6 5 4 5 5 6
9 9 10 9 9 9 8 7 6 4 5 5 6 6 5 6 6 7 6 5 6 6 5 5 6 5 5 6 6 8 7 5 5 5 6 6 6 5 6 6 5 5 6 6 6 6 6 6 7 7 7 7 7 6 6 9 8 7 6 7 6 6 6 6 6 6 6 6 7 8 9 6 5 4 4 4 4 4 5 5 5 5 5 5 6
10 8 9 10 8 9 8 8 6 4 5 5 5 5 5 6 6 6 6 6 6 5 5 6 5 5 5 4 5 4 5 6 5 5 5 5 5 5 5 3 2 2 2 3 5 5 5 5 4 5 7 8 7 7 7 5 5 5 4 4 7 7 7 7 6 8 6 5 5 5 6 7 6 6 6 6 5 5 5 4 5 6 5 5 5
7 8 8 8 8 9 8 7 4 4 5 5 5 4 5 5 5 6 6 7 5 5 6 6 6 6 5 5 5 6 5 6 5 6 5 4 6 5 4 4 4 4 3 1 1 2 2 4 5 4 2 4 6 6 7 9 9 8 7 5 6 8 8 7 9 11 4 3 6 6 7 7 7 7 7 6 7 7 6 6 5 6 6 6 6
8 9 8 8 7 7 8 6 4 4 4 4 4 4 4 5 5 5 6 6 5 5 6 6 6 6 7 7 6 6 6 5 5 5 5 5 6 4 4 4 4 6 6 8 8 8 6 5 2 4 3 3 2 4 8 7 9 9 9 10 11 10 10 9 8 7 6 8 8 8 9 9 10 10 9 10 11 10 10 9 9 9 7 7 7
Wind_Direction
175 171 169 168 169 168 165 163 169 164 163 162 163 166 168 167 156 161 166 157 153 151 153 151 150 148 145 170 174 177 174 178 189 200 196 205 196 191 184 179 173 170 176 179 189 196 190 208 218 191 162 174 195 224 234 239 238 224 320 13 327 350 321 344 319 108 34 351 346 357 330 320 302 188 214 215 216 225 222 222 234 240 239 238 243
162 166 169 166 166 164 159 160 164 158 170 165 167 169 172 167 166 161 156 161 164 163 161 163 170 174 159 174 163 164 168 176 190 190 191 200 205 194 188 186 176 166 165 182 185 178 171 186 204 181 171 186 210 228 225 222 299 345 45 343 357 6 298 250 313 71 21 81 31 328 341 321 308 268 227 230 227 231 228 227 227 232 240 238 239
163 167 168 169 166 162 161 165 172 169 167 170 168 163 168 171 171 161 163 162 168 164 156 171 173 167 163 165 160 151 181 184 181 179 175 180 193 196 192 190 178 170 156 170 170 174 176 179 195 179 179 178 176 223 217 237 159 251 67 250 323 333 277 273 281 143 134 181 157 66 336 6 328 350 307 265 226 220 214 229 229 232 244 239 229
166 166 169 170 166 165 163 169 171 165 164 165 165 167 168 175 169 167 168 165 166 170 169 174 170 165 146 148 145 147 167 165 164 156 167 161 184 190 200 187 186 180 155 152 163 171 174 188 179 178 188 175 167 183 203 230 253 264 139 181 128 353 353 314 335 189 115 105 349 39 252 91 342 315 312 290 252 231 216 231 223 240 246 250 220
163 166 169 168 168 171 169 171 164 163 169 171 169 169 172 175 173 171 169 171 170 173 171 162 143 128 121 105 111 85 81 117 129 158 175 177 168 187 206 191 192 191 162 150 157 173 179 174 172 185 178 177 156 153 182 208 205 204 184 170 177 45 334 327 317 48 121 165 136 59 355 17 237 257 339 289 353 305 267 257 249 246 253 245 236
164 169 171 170 170 169 170 167 166 168 171 175 172 170 167 172 171 170 167 168 173 175 166 156 159 152 147 147 157 157 150 154 166 171 174 176 189 190 187 194 192 198 173 158 157 161 172 178 167 163 179 173 178 174 183 195 234 196 209 192 190 204 205 64 309 312 358 313 182 163 163 174 282 286 55 306 320 268 294 265 247 259 260 267 259
168 167 169 170 171 168 173 172 172 171 173 170 170 169 166 167 171 169 168 172 171 170 165 159 155 161 165 169 167 170 168 192 175 170 169 181 168 177 184 189 197 192 196 168 166 171 169 177 168 165 182 184 188 143 184 221 227 208 185 166 221 173 127 15 300 284 348 4 27 30 165 206 163 51 306 263 354 320 339 304 277 258 251 258 264
169 170 173 173 172 172 175 177 175 175 167 166 171 168 167 168 169 169 167 169 172 160 166 166 162 166 167 169 168 171 176 177 172 171 168 163 167 179 172 187 190 197 196 187 177 178 175 183 170 171 181 201 188 194 214 232 226 247 201 184 164 157 138 132 311 320 94 279 5 21 7 62 39 228 160 112 181 13 330 321 284 292 282 243 237
172 172 175 175 175 177 173 176 180 168 163 168 175 172 170 169 168 165 169 167 168 162 160 171 166 169 169 164 171 185 177 172 160 154 160 167 168 171 175 183 186 197 200 197 193 183 188 186 177 187 203 217 207 208 221 213 223 249 224 155 153 150 175 163 95 12 108 269 351 7 22 23 343 57 71 87 87 77 324 312 304 320 321 284 256
180 177 178 178 178 178 179 174 168 174 171 170 168 164 166 166 168 168 173 171 164 165 159 163 171 164 165 172 176 179 177 148 146 159 164 164 172 179 181 181 190 196 209 207 200 197 196 187 179 192 208 214 220 220 231 241 234 218 215 198 178 148 188 129 358 333 139 269 171 139 34 342 11 6 13 16 14 64 111 308 286 311 318 293 310
175 181 185 182 181 177 171 174 176 167 165 163 164 167 165 168 169 173 177 169 165 167 161 164 170 173 175 178 180 177 177 164 157 172 162 159 177 186 181 193 191 203 202 211 208 203 203 196 184 195 199 206 225 230 237 240 239 228 214 166 170 163 144 78 54 62 100 121 161 117 112 122 137 245 276 293 95 311 7 326 317 240 220 303 295
174 177 184 186 178 177 174 176 171 168 163 167 167 166 167 169 169 172 175 174 170 165 163 168 170 181 182 178 181 183 171 172 181 183 185 182 182 187 189 174 197 203 206 206 219 213 203 206 202 196 207 210 230 228 249 248 261 257 223 176 160 114 114 81 32 45 38 18 48 95 93 163 179 208 232 199 181 219 145 290 279 310 331 238 288
169 178 177 177 180 177 179 180 171 166 172 173 170 169 167 168 170 172 181 181 175 166 170 172 175 181 183 184 184 178 176 176 186 187 189 187 183 185 176 189 184 193 210 205 219 208 203 204 214 217 238 237 244 249 255 268 274 267 250 220 168 168 176 169 293 297 150 15 313 325 121 198 262 245 202 200 233 150 142 317 280 92 268 309 300
169 178 176 177 181 182 180 176 177 178 177 174 171 167 167 169 173 176 182 181 175 169 170 175 185 185 183 186 182 175 180 181 186 187 193 192 183 188 188 188 187 198 193 205 205 200 202 205 201 216 225 239 244 244 246 246 216 214 230 220 210 219 150 175 216 248 246 256 218 357 11 338 289 269 252 156 156 138 99 177 298 343 34 312 299
139 174 182 177 183 183 179 179 181 180 177 174 173 171 166 168 173 178 177 183 178 178 173 178 184 183 184 188 180 178 182 185 190 191 187 188 195 190 194 188 190 199 192 199 190 192 200 197 206 211 219 228 240 249 242 233 222 211 215 234 250 195 196 199 246 264 307 321 328 35 336 333 311 299 210 222 166 170 157 168 121 13 347 6 352
76 103 175 178 181 184 181 181 183 180 176 175 176 171 172 174 176 179 181 183 182 178 182 181 183 179 178 182 183 181 189 188 192 193 196 193 189 192 195 194 199 194 196 177 192 186 191 197 204 215 214 220 228 234 237 227 213 204 234 232 249 212 211 231 252 291 284 281 290 309 6 315 306 301 288 234 197 168 136 123 117 108 91 341 335
347 124 151 145 131 158 183 187 186 181 177 178 178 178 179 174 175 181 183 182 184 185 182 183 179 178 186 181 175 181 185 190 194 197 195 199 194 194 192 200 195 193 192 186 187 192 193 192 198 208 214 217 224 227 225 222 204 206 215 227 241 243 215 233 243 261 272 289 304 305 283 285 300 298 297 303 276 75 137 159 157 144 161 91 349
297 48 48 47 122 136 160 185 188 186 182 181 182 184 183 178 177 177 179 183 191 186 184 182 182 187 186 188 185 180 185 193 196 195 190 188 201 199 193 190 203 200 194 192 186 197 199 200 196 204 208 211 215 215 215 215 195 203 209 215 228 220 225 247 246 231 262 268 284 303 303 305 291 294 281 279 266 208 198 194 177 146 135 131 174
29 352 339 340 133 112 90 126 158 172 189 188 186 184 182 185 182 177 179 186 186 187 187 188 185 187 190 193 188 184 185 192 196 194 183 188 198 196 197 202 200 200 197 197 192 200 203 208 203 205 202 209 209 206 203 204 193 203 206 219 226 196 213 236 250 238 255 250 269 277 291 291 288 293 292 288 293 215 226 208 150 133 147 137 152
117 90 327 341 14 64 101 113 136 149 163 174 176 182 189 189 182 184 184 182 180 184 181 186 193 189 189 187 191 185 185 189 194 188 189 195 200 197 203 200 206 197 205 198 198 203 203 207 209 210 209 207 207 208 195 196 190 202 207 213 215 188 209 225 245 238 247 245 252 263 267 267 282 313 305 288 278 271 211 178 154 136 170 148 132
113 99 49 341 25 37 128 132 110 82 93 150 169 180 187 180 179 174 165 167 182 193 187 191 185 194 187 190 190 184 192 188 192 194 197 199 198 200 204 211 199 209 204 203 203 208 207 209 211 212 213 210 210 211 201 194 192 202 209 210 211 194 208 230 229 250 248 245 244 248 260 260 254 281 279 282 278 258 151 149 146 131 122 115 126
77 75 67 4 24 40 47 109 104 86 91 110 147 160 157 151 150 153 155 170 176 179 184 177 180 186 195 197 197 187 186 187 194 198 203 204 202 200 203 204 213 219 204 211 210 211 209 208 213 219 217 217 215 214 207 196 200 205 210 201 212 208 214 230 223 242 245 238 234 240 257 265 252 239 262 263 243 262 254 271 192 165 197 199 179
74 72 75 61 41 37 43 47 75 87 71 86 79 88 107 124 134 142 139 137 145 144 137 146 162 177 195 196 195 198 189 193 200 201 207 209 208 206 195 200 212 222 215 215 214 213 208 206 213 216 219 222 219 218 213 206 211 210 212 211 208 206 212 222 226 234 237 232 233 235 247 249 241 243 258 253 238 236 223 211 244 195 212 226 194
65 62 57 61 60 52 49 40 47 60 79 80 88 90 97 111 124 126 121 114 100 110 135 147 152 162 174 180 197 201 201 202 205 208 210 211 209 207 200 205 213 213 215 223 221 217 210 207 210 213 214 219 222 222 217 214 216 215 217 218 214 213 214 218 221 226 228 223 227 235 244 242 246 253 265 265 263 244 224 224 230 246 213 238 217
86 84 74 70 81 81 80 105 119 120 110 108 110 118 116 93 60 49 60 71 93 102 106 121 149 151 156 173 186 188 203 215 217 212 215 211 209 209 200 208 212 221 220 213 223 216 212 209 212 213 212 213 218 217 218 220 223 221 222 224 221 219 222 223 224 225 226 223 227 227 238 236 240 253 267 263 260 256 247 230 239 250 241 243 243
111 109 97 80 80 80 75 81 101 117 108 94 81 78 95 115 118 107 93 48 355 144 166 170 166 165 175 181 187 194 198 208 220 222 218 214 213 213 211 209 207 220 227 220 214 212 209 211 216 218 214 214 214 214 218 221 221 223 226 229 229 225 228 230 232 231 231 228 229 231 235 226 221 227 245 253 255 253 261 253 250 254 251 254 256
97 98 103 111 104 99 95 94 97 107 121 126 125 127 109 77 88 129 143 152 166 255 266 211 175 174 178 195 194 200 212 212 211 222 227 212 210 213 219 225 215 221 227 229 223 219 216 211 216 217 218 216 215 214 217 221 224 226 227 229 233 232 233 234 237 237 236 233 232 235 235 226 224 224 233 236 234 241 242 252 247 249 247 242 256
97 100 92 92 93 95 99 93 75 83 101 104 105 114 132 146 149 163 167 174 181 185 199 222 201 177 178 193 203 213 213 263 293 254 227 218 205 206 216 224 225 231 232 231 231 227 224 215 218 217 219 217 214 215 216 219 221 223 225 229 230 232 233 233 238 239 239 238 236 238 240 235 229 230 227 233 217 230 225 242 246 243 251 247 255
102 100 93 92 86 81 84 85 77 76 84 97 108 126 140 134 136 143 152 173 186 180 178 186 199 195 173 163 220 204 116 49 10 2 356 6 27 24 10 348 310 260 232 227 232 229 228 230 231 225 224 221 219 222 219 215 217 223 221 227 225 226 227 231 233 235 235 236 239 237 239 239 235 236 231 232 229 222 225 240 249 223 238 238 255
98 98 96 91 90 83 80 92 87 81 69 71 70 107 118 104 96 86 87 84 102 100 106 107 101 80 72 63 50 38 38 63 67 64 56 34 20 72 81 54 30 353 329 300 251 226 220 221 224 227 226 223 225 225 226 221 216 215 216 222 224 225 226 227 230 236 240 234 234 234 237 235 235 239 240 241 242 243 240 233 244 230 227 229 237
97 93 88 87 87 83 81 77 83 72 73 68 69 54 48 60 55 66 62 63 77 75 61 58 63 64 69 72 72 64 57 55 80 105 115 148 162 170 147 165 235 284 323 326 315 281 250 235 221 216 218 222 227 228 227 224 224 223 219 217 221 226 223 226 228 230 240 242 242 237 237 245 243 240 241 242 243 243 246 248 249 248 235 215 231
102 98 95 94 88 84 83 88 82 78 71 59 40 27 40 43 46 54 59 58 56 53 60 56 48 57 66 72 77 79 74 75 96 120 201 279 37 57 0 321 296 262 223 32 324 310 301 300 295 274 240 228 227 230 228 228 227 227 224 224 221 225 221 222 227 229 234 237 242 243 241 238 237 236 237 240 239 239 240 244 246 248 250 247 242
99 91 92 88 89 88 88 83 80 77 75 72 79 75 51 39 26 44 64 63 55 47 51 52 46 51 58 69 72 71 70 66 55 93 93 72 72 65 32 327 309 321 340 353 339 325 310 302 264 249 253 269 278 280 262 244 235 230 225 224 235 224 219 219 221 226 229 231 232 237 246 241 244 243 241 239 240 249 245 240 242 248 252 241 238
96 103 94 84 80 81 79 82 86 86 83 79 74 75 72 67 59 44 55 54 42 30 47 43 36 41 44 56 75 77 73 65 63 63 75 92 99 101 88 18 321 346 356 352 348 349 331 311 289 252 246 235 231 281 289 253 252 253 247 226 234 235 232 230 226 224 226 227 225 228 235 245 243 243 241 242 242 242 250 256 254 245 243 242 235
105 95 86 83 81 77 73 67 64 64 61 69 66 71 76 66 54 65 67 75 67 39 35 42 35 28 26 35 52 80 82 66 70 82 74 74 66 59 59 51 27 16 16 18 15 17 4 336 325 306 290 283 256 189 296 272 253 237 238 219 233 238 240 240 236 230 230 230 227 225 227 237 243 239 238 234 238 243 243 248 253 257 250 248 243
107 95 87 82 75 72 68 59 51 58 53 57 55 60 71 70 65 65 66 69 74 64 51 48 39 26 23 15 22 60 84 83 71 66 74 73 71 58 48 34 61 40 15 30 24 16 12 351 317 323 350 327 312 311 311 305 297 307 252 217 222 229 238 244 246 242 236 235 233 228 230 239 242 243 245 238 236 239 239 249 256 259 263 261 255
106 100 94 89 81 73 66 65 56 47 43 41 38 46 53 53 51 49 56 55 56 56 50 45 46 33 6 6 15 23 70 93 92 71 58 54 67 71 336 249 205 184 128 104 96 78 358 323 300 307 336 346 346 333 335 334 337 356 38 352 278 256 258 259 259 264 266 263 256 240 237 245 250 250 250 243 242 236 248 251 255 261 263 270 270
106 100 96 88 82 75 59 62 59 49 38 37 47 53 51 48 40 33 37 37 42 44 46 46 37 39 13 11 24 31 33 44 67 84 90 96 165 178 185 205 191 145 93 35 21 58 57 12 307 319 335 12 1 22 23 10 6 12 327 340 7 253 275 274 282 279 274 270 263 259 246 238 244 252 252 247 245 224 233 243 248 257 267 269 271
104 106 102 95 90 85 76 62 54 46 26 37 48 54 53 47 39 34 35 32 23 12 18 31 25 9 22 24 27 31 33 31 29 35 51 6 281 204 188 165 13 26 30 92 76 70 63 41 350 344 21 25 30 27 18 12 1 5 9 43 91 38 325 305 306 300 294 277 283 280 273 267 263 265 262 255 251 226 233 235 238 246 259 261 261
95 86 92 94 90 78 65 60 53 36 27 40 48 52 51 46 35 37 33 22 8 351 329 342 10 37 34 34 33 35 35 38 35 34 32 35 27 47 51 81 20 6 24 24 37 49 48 33 5 0 22 24 28 19 11 10 8 4 12 353 15 32 350 328 317 316 316 314 304 291 296 294 285 287 294 298 300 290 256 252 235 237 248 260 258
105 100 91 77 70 76 75 69 59 48 41 37 48 54 43 33 36 36 21 357 340 343 354 1 4 19 42 40 40 44 44 44 48 57 60 50 42 47 50 51 44 33 37 34 34 38 50 44 351 352 14 21 21 21 7 18 26 29 24 20 9 15 5 351 343 333 331 321 321 318 308 348 22 26 19 5 347 324 279 272 264 251 244 276 338
103 105 100 92 81 75 69 58 48 51 49 47 54 56 43 34 33 20 352 330 337 352 6 12 17 7 27 43 45 45 52 56 51 57 60 55 43 48 46 44 38 36 34 29 22 21 25 27 360 8 24 24 18 22 15 36 56 55 42 35 28 26 5 338 351 328 323 317 309 313 305 27 4 354 339 335 328 339 318 253 257 260 283 295 288
112 102 102 102 92 82 72 67 52 52 48 43 57 55 43 36 28 353 329 332 337 353 10 18 18 10 19 36 51 51 52 50 57 55 61 56 45 44 38 36 37 36 35 29 17 12 8 7 5 11 16 15 12 7 23 36 69 55 45 41 34 28 347 350 352 331 325 312 313 317 314 334 329 322 319 311 303 297 296 261 261 267 267 271 273
107 112 110 102 100 94 84 67 57 52 49 47 55 56 41 36 10 327 329 339 351 352 360 26 20 8 16 31 41 65 56 56 56 58 58 55 45 45 45 37 32 35 30 25 15 9 10 8 3 360 4 3 360 4 10 17 59 54 41 28 21 20 27 8 335 310 312 303 306 311 308 310 304 298 298 306 306 295 268 277 278 274 274 274 261
120 116 107 101 104 101 92 72 56 54 50 48 45 52 41 24 344 338 346 349 347 358 5 20 8 6 357 48 23 65 67 63 55 63 64 53 45 42 47 30 38 35 30 27 13 9 12 360 359 360 352 347 349 355 5 4 47 48 36 21 13 8 13 18 7 342 322 314 300 291 287 285 282 281 277 276 280 278 276 272 271 270 267 247 243
113 108 105 108 103 98 92 84 59 51 53 48 44 45 39 354 338 354 351 349 357 10 14 5 357 356 0 23 48 51 72 62 56 60 70 66 63 51 60 48 48 43 36 30 10 9 6 1 356 351 348 338 334 347 358 11 28 3 8 5 358 358 4 3 337 305 312 306 299 294 284 274 267 263 265 257 262 268 274 278 276 266 247 249 250
118 121 116 109 107 100 95 87 77 55 63 55 50 40 30 7 9 357 357 357 19 33 31 24 14 357 1 32 66 46 42 48 66 68 61 55 47 50 50 52 46 40 31 23 16 13 7 1 356 344 342 340 334 348 6 18 6 359 357 355 348 349 356 356 357 347 333 324 315 312 303 295 281 278 273 270 267 275 281 277 265 247 230 232 238
122 122 115 113 112 113 107 99 94 86 77 73 60 47 31 20 15 9 360 16 38 36 37 30 25 21 38 44 36 44 45 31 29 42 54 50 42 46 57 50 43 33 28 17 14 11 6 359 346 340 336 344 347 359 24 4 358 0 351 345 345 348 353 351 347 347 329 313 311 304 301 307 314 314 294 274 268 255 262 278 279 273 264 254 252
123 125 123 124 125 118 116 112 117 121 100 84 79 63 43 34 22 16 13 30 31 30 36 29 24 28 31 39 44 41 39 40 32 41 58 73 62 50 49 46 56 86 50 41 13 3 1 348 336 332 336 339 348 4 4 359 3 14 1 337 349 348 340 335 342 335 319 315 321 329 343 345 354 344 336 329 322 311 298 281 283 285 274 265 260
121 120 120 120 120 119 111 108 118 123 103 97 87 73 60 47 34 28 28 35 19 27 34 24 19 22 24 36 40 42 40 40 41 32 25 43 85 87 58 50 8 19 57 116 154 11 335 322 335 329 333 329 333 338 349 3 0 357 350 334 309 309 317 315 325 319 293 315 357 354 358 351 348 347 338 331 327 325 322 316 309 291 283 281 275
122 113 113 116 115 108 106 102 107 103 91 88 82 77 77 60 52 39 38 34 28 36 37 30 29 29 36 42 33 40 33 36 31 25 30 20 355 17 34 21 11 355 9 5 2 358 43 77 349 344 4 69 80 9 16 11 7 355 343 342 342 343 348 342 342 352 19 19 8 7 7 6 1 357 360 359 353 349 351 347 344 338 323 305 289